1998-067NV

Last updated on Fri Aug 17 2018 00:15:07 GMT+0000 (Coordinated Universal Time)

1 43547U 98067NV 18228.18272861 .00002123 00000-0 38349-4 0 9998 2 43547 51.6424 79.4972 0007242 66.2027 293.9723 15.54872045 4845
UTC large
Height (km)
Speed (km/s)
/
Latitude / Longitude
Inclination (degrees)
Orbital Period (minutes)
Azimuth
Elevation
Range (km)
Doppler Factor

Next 0 passes for location: London (51.5072 / 0.1276)

Sorry there are no passes over London.